[[{"header":{"parameterUnit":"m.s-1","parameterCategory":1,"la1":30.2991,"la2":30.254,"lo1":-89.0895,"lo2":-89.0444,"dy":0.0017,"dx":0.0017,"nx":28,"ny":28,"refTime":"2025-12-12T03:00:00:Z","depth":0,"parameterNumber":2,"parameterNumberName":"U-component_of_WINDS"},"data":[0,0,0,0,0,0,0,0,0,0,0,0,0,0,0,0,0,0,0,0,0,0,0,0,0,0,0,0,0,0,0,0,0,0,0,0,0,0,0,0,0,0,0,0,0,0,0,0,0,0,0,0,0,0,0,0,0,0,-1.4898,-1.4898,0,-1.4912,-1.4912,-1.4912,-1.4903,-1.4902,-1.4902,-1.4901,-1.4916,-1.4917,-1.4917,0,0,0,0,0,0,0,0,0,0,0,0,0,-1.4864,-1.4864,-1.4898,-1.4898,-1.4898,-1.4912,-1.4912,-1.4912,-1.4903,-1.4902,-1.4902,-1.4901,-1.4916,-1.4917,-1.4918,0,0,0,0,0,0,0,0,0,0,0,0,0,-1.4878,-1.4864,-1.4898,-1.4895,-1.4895,-1.4912,-1.4912,-1.4912,-1.4903,-1.4902,-1.4902,-1.4901,-1.4915,-1.4916,-1.4918,-1.4938,0,0,-1.4921,-1.4922,0,0,0,0,0,0,0,0,-1.4877,-1.4879,-1.4896,-1.4896,-1.4895,-1.4905,-1.4905,-1.4921,-1.4903,-1.49,-1.4901,-1.4901,-1.4913,-1.4914,-1.4918,-1.4939,-1.4939,-1.4921,-1.4922,-1.4923,-1.4923,0,0,0,0,0,0,0,-1.4876,-1.4879,-1.4904,-1.4896,-1.4896,-1.4893,-1.4895,-1.4908,-1.491,-1.49,-1.4899,-1.4901,-1.4913,-1.4917,-1.4918,-1.4939,-1.4921,-1.4922,-1.4923,-1.4924,-1.4976,-1.4977,0,0,0,0,0,0,-1.4875,-1.4878,-1.4903,-1.4904,-1.4885,-1.4895,-1.4896,-1.4903,-1.491,-1.491,-1.4902,-1.4901,-1.4915,-1.4917,-1.4919,-1.4942,-1.4923,-1.4924,-1.4924,-1.4975,-1.4976,-1.4977,0,0,0,0,0,0,-1.4875,-1.4878,-1.4903,-1.4891,-1.4894,-1.4896,-1.4903,-1.4903,-1.4907,-1.4911,-1.4911,-1.4906,-1.4915,-1.4917,-1.4933,-1.4942,-1.4924,-1.4925,-1.4974,-1.4975,-1.4976,-1.4989,0,0,0,0,0,0,-1.4874,-1.4878,-1.4885,-1.4891,-1.4894,-1.4916,-1.4904,-1.4904,-1.4909,-1.4908,-1.4915,-1.4915,-1.4915,-1.4931,-1.4934,-1.4944,-1.4926,-1.4974,-1.4975,-1.4976,-1.4988,-1.499,-1.4992,0,0,0,0,0,-1.4873,-1.4889,-1.4886,-1.4889,-1.4904,-1.4917,-1.4919,-1.4918,-1.491,-1.4918,-1.492,-1.4915,-1.4941,-1.4933,-1.4936,-1.4946,-1.4973,-1.4975,-1.4976,-1.4986,-1.499,-1.4992,0,0,0,0,0,0,-1.4885,-1.4889,-1.4886,-1.4905,-1.491,-1.4915,-1.4925,-1.4921,-1.4929,-1.4928,-1.4926,-1.4928,-1.4944,-1.4947,-1.4937,-1.4965,-1.4956,-1.4958,-1.4963,-1.4966,-1.4968,-1.4966,-1.4927,0,0,0,0,0,-1.4889,-1.4899,-1.4903,-1.4919,-1.4922,-1.4923,-1.4929,-1.4927,-1.4933,-1.4935,-1.4939,-1.4945,-1.4954,-1.496,-1.4969,-1.4988,-1.4989,-1.4997,-1.4999,-1.5001,-1.5003,-1.5012,-1.5015,-1.4982,-1.4982,-1.4982,0,0,-1.4899,-1.4903,-1.491,-1.4921,-1.4926,-1.4936,-1.4925,-1.4937,-1.4944,-1.4937,-1.4952,-1.4954,-1.4961,-1.4978,-1.4986,-1.4981,-1.5012,-1.5003,-1.5005,-1.5005,-1.5014,-1.5017,-1.502,-1.4983,-1.4983,-1.4982,0,0,-1.4922,-1.4927,-1.4939,-1.4944,-1.495,-1.4951,-1.4954,-1.4959,-1.4961,-1.4975,-1.497,-1.4979,-1.4996,-1.5,-1.5004,-1.5028,-1.5024,-1.5032,-1.5043,-1.5052,-1.5055,-1.5057,-1.5065,-1.5067,-1.5033,-1.5033,-1.5033,0,-1.4934,-1.4948,-1.4947,-1.4958,-1.4963,-1.4957,-1.497,-1.4975,-1.4984,-1.4987,-1.4982,-1.5002,-1.5006,-1.5023,-1.5029,-1.5033,-1.5036,-1.503,-1.5055,-1.5057,-1.5059,-1.5066,-1.5069,-1.5034,-1.5034,-1.5034,-1.5034,0,-1.4961,-1.4972,-1.4982,-1.499,-1.4996,-1.5008,-1.5008,-1.5015,-1.5013,-1.5014,-1.5028,-1.5033,-1.5042,-1.5046,-1.5045,-1.5063,-1.506,-1.5055,-1.5045,-1.5063,-1.5069,-1.5072,-1.5035,-1.5035,-1.5035,-1.5035,0,0,-1.4992,-1.4998,-1.5002,-1.5005,-1.5011,-1.5019,-1.5031,-1.504,-1.5045,-1.5051,-1.5061,-1.5075,-1.5069,-1.5074,-1.5073,-1.5081,-1.5098,-1.5075,-1.5075,-1.5078,-1.5118,-1.5121,-1.5124,-1.5096,-1.5096,-1.5097,-1.5117,0,-1.5014,-1.5033,-1.5032,-1.5051,-1.5059,-1.5054,-1.5064,-1.5069,-1.507,-1.5078,-1.508,-1.5089,-1.5082,-1.5085,-1.5093,-1.5095,-1.5106,-1.5094,-1.5104,-1.5104,-1.5101,-1.5127,-1.5131,-1.5149,-1.512,-1.512,-1.512,0,-1.5042,-1.5048,-1.5068,-1.5072,-1.5075,-1.5084,-1.5092,-1.5099,-1.5105,-1.5105,-1.5111,-1.5108,-1.5119,-1.511,-1.5125,-1.5117,-1.5121,-1.5123,-1.5123,-1.5123,-1.5112,-1.5127,-1.5155,-1.5158,-1.5124,-1.5124,-1.5124,0,-1.506,-1.5074,-1.5087,-1.509,-1.5096,-1.5102,-1.5104,-1.5109,-1.5114,-1.5121,-1.5124,-1.5132,-1.5136,-1.5143,-1.5142,-1.5136,-1.5157,-1.5148,-1.5157,-1.5157,-1.5161,-1.5161,-1.5189,-1.5166,-1.5166,-1.5166,-1.5166,0,-1.5084,-1.5096,-1.5095,-1.5103,-1.5115,-1.5114,-1.5127,-1.5129,-1.5133,-1.5141,-1.5137,-1.5145,-1.5144,-1.5152,-1.5152,-1.5164,-1.5166,-1.5167,-1.5166,-1.5166,-1.5166,-1.5168,-1.5166,-1.5167,-1.5167,-1.5166,-1.5166,0,-1.5106,-1.5106,-1.512,-1.5124,-1.5125,-1.5134,-1.5137,-1.5144,-1.5145,-1.5155,-1.5158,-1.5159,-1.5168,-1.5169,-1.5179,-1.5179,-1.5193,-1.5192,-1.5191,-1.519,-1.5199,-1.5198,-1.5229,-1.5232,-1.5208,-1.5208,-1.5209,0,-1.5121,-1.5129,-1.5134,-1.5138,-1.5141,-1.5149,-1.5154,-1.5153,-1.5158,-1.5165,-1.5171,-1.5179,-1.5186,-1.52,-1.5202,-1.521,-1.5208,-1.5219,-1.5209,-1.5209,-1.5207,-1.5206,-1.5206,-1.522,-1.522,-1.5221,-1.5221,0,-1.5146,-1.5145,-1.5152,-1.5159,-1.5164,-1.517,-1.5175,-1.5179,-1.5179,-1.5185,-1.5193,-1.5198,-1.5209,-1.5217,-1.5224,-1.5227,-1.5223,-1.5224,-1.5226,-1.5225,-1.5224,-1.5224,-1.5195,-1.5223,-1.5223,-1.5222,-1.5222,-1.5222,-1.5164,-1.517,-1.5174,-1.5182,-1.5185,-1.519,-1.5197,-1.5198,-1.5205,-1.5213,-1.5212,-1.5222,-1.5226,-1.5236,-1.5239,-1.5246,-1.5243,-1.5246,-1.5247,-1.5248,-1.5248,-1.5224,-1.5248,-1.5248,-1.5248,-1.5248,-1.5248,0,-1.5187,-1.519,-1.5197,-1.5203,-1.5209,-1.5205,-1.5211,-1.5216,-1.5224,-1.5228,-1.5234,-1.5244,-1.5252,-1.5254,-1.5262,-1.5267,-1.5266,-1.5269,-1.5268,-1.5268,-1.5251,-1.5248,-1.527,-1.527,-1.527,-1.527,-1.527,-1.527,-1.52,-1.5211,-1.5211,-1.5224,-1.5226,-1.5235,-1.5238,-1.5242,-1.5245,-1.5256,-1.5262,-1.5264,-1.5267,-1.5275,-1.5282,-1.5282,-1.5285,-1.5288,-1.5288,-1.5272,-1.527,-1.5268,-1.5264,-1.5289,-1.5289,-1.5304,-1.5305,-1.5305]},{"header":{"parameterUnit":"m.s-1","parameterCategory":1,"la1":30.2991,"la2":30.254,"lo1":-89.0895,"lo2":-89.0444,"dy":0.0017,"dx":0.0017,"nx":28,"ny":28,"refTime":"2025-12-12T03:00:00:Z","depth":0,"parameterNumber":3,"parameterNumberName":"V-component_of_WINDS"},"data":[0,0,0,0,0,0,0,0,0,0,0,0,0,0,0,0,0,0,0,0,0,0,0,0,0,0,0,0,0,0,0,0,0,0,0,0,0,0,0,0,0,0,0,0,0,0,0,0,0,0,0,0,0,0,0,0,0,0,1.4841,1.4842,0,1.4969,1.4971,1.4972,1.499,1.4989,1.4988,1.4987,1.5119,1.5123,1.5128,0,0,0,0,0,0,0,0,0,0,0,0,0,1.4614,1.4618,1.4841,1.4842,1.4844,1.4969,1.4971,1.4972,1.499,1.4989,1.4987,1.4986,1.5117,1.5123,1.5128,0,0,0,0,0,0,0,0,0,0,0,0,0,1.4724,1.4619,1.4841,1.4868,1.4872,1.4969,1.4971,1.4973,1.4991,1.4989,1.4987,1.4985,1.5116,1.5122,1.5129,1.5208,0,0,1.515,1.5153,0,0,0,0,0,0,0,0,1.4718,1.4732,1.4862,1.4866,1.4871,1.4962,1.4939,1.5052,1.4991,1.4946,1.4987,1.4984,1.5068,1.5079,1.5107,1.5214,1.522,1.5151,1.5155,1.5158,1.516,0,0,0,0,0,0,0,1.471,1.4727,1.4892,1.4864,1.4869,1.4875,1.4888,1.4961,1.5015,1.4949,1.4951,1.4966,1.507,1.51,1.511,1.5222,1.5151,1.5157,1.5161,1.5164,1.5402,1.5404,0,0,0,0,0,0,1.4697,1.4721,1.4888,1.4896,1.4788,1.488,1.4895,1.4934,1.5015,1.5025,1.4967,1.4966,1.5089,1.5102,1.5115,1.5214,1.5158,1.5165,1.5169,1.5399,1.5402,1.5404,0,0,0,0,0,0,1.4692,1.4712,1.4882,1.4809,1.4831,1.4886,1.4929,1.4938,1.4968,1.5028,1.5038,1.4988,1.5088,1.5105,1.5185,1.5219,1.5168,1.5174,1.5397,1.54,1.5403,1.5411,0,0,0,0,0,0,1.4686,1.471,1.474,1.4809,1.4834,1.495,1.4931,1.4942,1.498,1.498,1.505,1.506,1.5088,1.5174,1.5192,1.5227,1.518,1.5394,1.5398,1.5402,1.5408,1.5414,1.5419,0,0,0,0,0,1.4677,1.4737,1.4742,1.4762,1.4873,1.4952,1.4966,1.4997,1.4982,1.5014,1.5052,1.5058,1.5212,1.5182,1.5202,1.524,1.5392,1.5397,1.5402,1.5406,1.5413,1.5419,0,0,0,0,0,0,1.4671,1.4747,1.4752,1.4836,1.4887,1.4955,1.4995,1.5004,1.5061,1.5058,1.5094,1.511,1.5189,1.5222,1.5188,1.5321,1.5301,1.531,1.5297,1.5304,1.531,1.5301,1.5185,0,0,0,0,0,1.4679,1.4736,1.4799,1.4867,1.4893,1.4939,1.4975,1.4994,1.5049,1.5071,1.5115,1.5169,1.5229,1.5268,1.5327,1.5412,1.5429,1.5448,1.5454,1.5458,1.5466,1.5515,1.5525,1.542,1.542,1.542,0,0,1.4697,1.4746,1.4779,1.4867,1.4909,1.4969,1.4958,1.502,1.5065,1.508,1.5159,1.5193,1.5255,1.5339,1.5377,1.5369,1.5498,1.5464,1.5467,1.5473,1.5521,1.5531,1.554,1.5423,1.5423,1.5422,0,0,1.4761,1.4802,1.4864,1.4906,1.497,1.5,1.5015,1.5081,1.5105,1.5184,1.5198,1.5251,1.5354,1.5398,1.5434,1.5514,1.5522,1.5532,1.5562,1.561,1.5618,1.5625,1.5656,1.5666,1.5539,1.5539,1.5539,0,1.4775,1.4864,1.4895,1.4957,1.4996,1.5012,1.5076,1.5116,1.5195,1.5222,1.5211,1.5341,1.5384,1.5479,1.5498,1.5526,1.5545,1.5525,1.5614,1.5622,1.5629,1.5659,1.567,1.554,1.554,1.554,1.554,0,1.488,1.4941,1.4984,1.506,1.5104,1.5166,1.5207,1.5247,1.5263,1.5295,1.5376,1.5427,1.5498,1.5521,1.5537,1.5618,1.5611,1.5606,1.5587,1.564,1.5668,1.5679,1.5542,1.5541,1.5541,1.5541,0,0,1.4944,1.5036,1.5051,1.5087,1.5158,1.5207,1.527,1.5339,1.5374,1.5428,1.5483,1.557,1.5567,1.5607,1.5628,1.5669,1.5731,1.566,1.5662,1.5673,1.5826,1.583,1.5843,1.5736,1.5738,1.574,1.5821,0,1.5017,1.513,1.516,1.5257,1.5315,1.5331,1.5387,1.5437,1.5469,1.5523,1.5558,1.562,1.5609,1.5634,1.5676,1.5715,1.5763,1.5709,1.5789,1.5792,1.5775,1.5857,1.5862,1.5936,1.5832,1.5834,1.5836,0,1.5117,1.5174,1.5277,1.5341,1.5367,1.5416,1.5482,1.5533,1.5591,1.5611,1.5656,1.5673,1.5741,1.5716,1.5811,1.5774,1.5808,1.5832,1.5836,1.5846,1.5818,1.5871,1.5961,1.5973,1.5853,1.5852,1.585,0,1.5156,1.5257,1.5333,1.5362,1.5439,1.5474,1.5507,1.5563,1.5603,1.566,1.5686,1.575,1.5786,1.5836,1.587,1.5849,1.5962,1.594,1.5982,1.5981,1.6007,1.6005,1.6105,1.6026,1.6025,1.6025,1.6025,0,1.5235,1.5298,1.5351,1.5397,1.5469,1.5502,1.5571,1.5606,1.5655,1.5709,1.5726,1.5777,1.5818,1.5874,1.5901,1.5976,1.5991,1.601,1.6017,1.601,1.6008,1.6034,1.6031,1.6028,1.6028,1.6027,1.6026,0,1.5291,1.5329,1.5412,1.5478,1.5496,1.5546,1.5603,1.5649,1.568,1.5748,1.5766,1.5816,1.5883,1.5922,1.6006,1.6024,1.6108,1.6112,1.6089,1.6092,1.6133,1.6129,1.6254,1.6273,1.618,1.618,1.6181,0,1.534,1.5389,1.546,1.5497,1.5532,1.5591,1.5632,1.5666,1.5708,1.5777,1.5815,1.5883,1.5939,1.6046,1.609,1.6155,1.6161,1.6201,1.6171,1.6163,1.6164,1.6161,1.6167,1.6206,1.6207,1.6208,1.6208,0,1.5424,1.5441,1.5498,1.5562,1.561,1.5662,1.5714,1.5744,1.5787,1.5833,1.5902,1.5945,1.6032,1.6099,1.6168,1.6203,1.6214,1.6217,1.623,1.6225,1.621,1.622,1.6105,1.6214,1.6214,1.6213,1.6213,1.6213,1.548,1.5525,1.5582,1.5645,1.5688,1.5736,1.5783,1.582,1.5878,1.5951,1.5968,1.604,1.6097,1.619,1.6227,1.6285,1.6278,1.6297,1.6302,1.6307,1.6309,1.6199,1.6297,1.6297,1.6297,1.6297,1.6297,0,1.5567,1.5604,1.5662,1.5734,1.5785,1.5789,1.5847,1.5889,1.5952,1.6004,1.6059,1.6139,1.6205,1.6254,1.6321,1.6358,1.6365,1.6375,1.6373,1.6382,1.6311,1.6293,1.6368,1.6368,1.6368,1.6368,1.6368,1.6368,1.5618,1.5694,1.5717,1.5814,1.5852,1.5923,1.5956,1.6001,1.6042,1.613,1.6185,1.6216,1.6268,1.6339,1.64,1.6413,1.6437,1.6447,1.6461,1.6394,1.6387,1.6379,1.6363,1.6452,1.6452,1.6528,1.6528,1.6529]}]]